Theta_e
324 326 328 333 333 336 339 341 341 351 348 342 336 335 333 336 335 336 340 340 341 340 343 340 340 337 332 333 333 329 326 333 334 332 331 333 334 335 331 332 332 336 338
321 324 326 333 333 336 338 339 341 346 345 340 341 337 337 334 334 336 340 340 340 342 340 340 339 337 332 333 332 332 330 331 333 326 328 321 328 332 330 333 335 338 337
320 323 324 333 334 334 337 338 341 342 345 346 342 338 338 339 335 334 336 339 339 340 339 338 337 335 336 331 335 334 331 329 332 333 329 322 318 323 328 332 334 339 336
322 322 328 332 333 334 337 339 341 341 341 344 343 344 333 329 333 336 334 338 338 337 336 337 336 335 335 337 335 337 334 333 329 333 335 332 330 322 320 334 337 341 340
321 321 329 332 333 335 336 339 340 339 341 341 342 335 335 331 333 333 336 339 340 337 336 336 335 336 340 335 335 334 334 336 333 334 334 336 328 330 322 324 328 337 340
320 326 331 333 333 334 336 338 338 338 339 338 339 339 337 334 332 333 334 339 340 338 337 334 336 337 337 335 333 334 334 335 336 335 334 330 325 325 325 328 329 329 330
325 328 329 329 331 333 335 335 336 336 337 337 337 337 337 337 336 336 336 337 337 335 337 336 336 336 336 335 336 336 334 335 335 335 335 332 331 334 335 327 329 324 326
327 328 328 330 331 332 334 333 335 334 335 335 336 336 338 336 338 336 335 334 336 338 337 335 336 335 335 335 335 336 338 337 337 335 335 336 330 330 337 332 328 322 323
327 327 329 330 331 332 333 334 334 334 334 334 336 336 337 337 337 336 337 334 337 334 335 335 335 335 335 335 336 337 335 336 334 335 334 332 335 334 343 339 336 324 319
326 327 329 330 331 332 333 334 333 332 333 334 334 335 336 337 337 336 335 336 337 334 334 335 335 335 335 335 337 337 336 334 329 332 332 331 336 332 340 338 337 336 329
326 327 328 330 331 332 332 332 332 331 332 333 334 337 337 335 337 337 335 335 334 334 332 334 334 334 334 336 336 335 332 332 330 331 329 333 330 335 332 334 332 330 331
326 327 328 329 330 331 331 329 331 331 332 332 333 336 335 334 337 335 335 336 334 332 332 332 333 332 332 335 333 332 333 331 330 332 330 331 333 334 335 332 331 328 329
326 326 327 328 329 330 328 328 329 329 331 331 331 335 333 335 334 334 336 335 332 331 331 332 332 331 332 331 332 331 331 330 332 332 332 332 333 331 330 331 331 329 326
324 326 327 328 329 329 326 326 328 329 330 329 331 334 334 335 334 336 335 334 332 331 331 332 332 332 330 330 330 330 330 332 333 332 334 331 326 326 329 328 328 327 325
324 325 326 327 328 327 325 326 327 328 328 328 332 333 334 334 335 334 334 335 334 332 331 333 333 330 330 328 330 331 331 333 333 333 332 333 326 323 324 330 329 327 324
323 325 326 327 327 326 324 326 327 327 328 329 330 332 332 333 332 335 334 334 333 333 333 332 332 330 329 309 314 323 330 334 333 332 332 332 323 318 313 315 317 324 323
324 325 326 328 328 325 325 325 326 328 327 328 330 331 332 331 331 332 333 333 334 335 333 333 332 331 329 308 310 313 333 334 333 333 332 331 329 327 328 313 312 312 312
325 326 327 329 328 326 326 327 327 326 326 328 329 331 330 332 331 332 332 335 338 335 335 333 333 331 325 308 308 311 335 333 334 333 333 333 330 327 329 325 323 323 324
328 328 330 331 329 326 326 326 326 325 326 326 329 330 330 331 331 332 334 336 331 331 331 332 331 331 326 304 303 313 333 331 333 332 331 332 330 306 308 322 318 318 319
330 330 331 331 329 327 327 326 325 324 325 326 329 331 331 332 331 334 335 338 337 332 329 330 328 316 328 300 302 314 333 330 329 331 327 309 316 305 308 322 321 319 320
331 332 331 331 329 328 327 325 325 323 326 327 329 332 333 333 333 336 338 338 336 333 330 330 329 328 324 317 301 307 332 331 331 327 327 323 302 305 311 314 323 319 323
330 331 331 331 330 328 327 325 325 326 326 327 328 331 334 332 332 335 336 336 336 333 331 330 329 329 328 313 303 302 312 317 332 327 326 318 299 301 305 314 303 304 317
329 331 331 331 330 328 327 325 327 326 325 327 327 331 333 332 334 332 334 333 334 330 330 330 329 328 330 328 304 303 303 309 332 330 313 299 298 299 306 302 304 305 330
328 331 331 330 329 328 327 327 327 326 325 327 328 330 331 331 333 331 331 331 331 328 328 328 329 330 329 329 329 328 327 307 319 309 315 315 309 304 312 315 315 327 328
328 330 331 331 330 328 327 327 327 326 326 327 328 328 330 331 331 331 327 328 333 324 326 327 330 329 328 327 321 323 330 331 324 326 329 328 328 324 323 324 326 328 328
328 329 331 331 331 329 327 326 327 326 327 328 326 327 327 330 329 327 326 297 303 303 301 302 314 326 312 303 303 303 301 302 305 326 327 326 326 325 324 324 325 326 322
Wind_Speed
25 23 17 2 4 5 7 10 13 12 11 11 12 10 9 7 7 6 7 6 7 8 6 6 7 7 7 7 6 5 5 5 4 4 5 6 8 7 7 7 8 3 8
27 21 15 4 4 6 9 11 13 13 12 10 9 7 7 8 7 7 7 5 8 6 7 7 7 8 5 7 9 9 7 7 6 5 5 4 5 8 8 6 5 7 8
24 19 13 6 7 8 10 12 14 15 12 11 6 5 5 1 5 6 7 7 6 6 5 7 7 7 7 7 8 8 9 7 6 11 5 4 6 9 6 6 5 8 8
19 19 7 9 9 10 11 14 15 16 12 11 9 8 7 6 2 0 2 5 4 6 5 5 8 8 8 5 6 6 8 7 7 7 9 10 6 7 6 5 6 7 6
21 18 11 11 11 12 13 14 16 15 13 10 8 7 6 4 3 3 1 4 3 3 7 7 8 8 4 5 7 7 8 6 5 6 6 6 7 5 4 6 6 5 5
16 6 11 13 13 14 15 15 16 14 12 10 8 5 5 2 3 3 1 2 3 4 6 6 6 4 5 6 6 5 7 5 5 4 5 5 4 3 4 4 8 7 3
11 13 14 15 16 18 17 16 15 14 12 10 8 6 4 3 4 4 2 4 2 3 7 4 4 4 5 6 6 7 4 5 4 5 3 3 4 3 3 2 6 5 3
12 14 16 17 18 18 18 16 15 14 12 10 8 6 5 5 2 0 3 4 2 4 6 5 5 5 7 7 6 5 4 5 2 4 5 4 5 2 3 7 10 7 2
14 16 18 17 18 17 17 16 15 13 11 10 7 6 5 1 3 2 1 5 5 6 5 4 3 5 4 3 5 2 3 2 2 2 2 4 3 4 1 6 7 7 6
16 17 17 18 16 16 15 14 13 12 11 10 8 6 5 3 6 2 1 6 4 5 6 4 4 5 6 4 3 3 2 5 2 1 2 4 3 1 3 6 5 4 7
18 18 17 17 17 16 15 13 12 12 11 9 8 6 5 3 7 4 3 7 5 6 5 6 4 4 4 4 4 4 5 6 5 3 3 4 5 4 7 5 5 5 5
19 19 19 18 17 16 15 13 12 12 10 9 7 7 5 3 5 5 5 7 6 6 7 7 5 3 3 6 3 4 4 5 5 5 5 4 3 6 7 5 6 7 5
20 19 19 17 17 15 14 13 12 11 11 9 8 7 3 4 5 4 5 5 7 6 6 6 5 2 7 6 4 4 4 6 6 4 4 5 6 6 3 5 7 8 7
19 18 18 17 16 15 14 13 12 11 10 9 9 6 4 6 6 7 6 6 7 6 5 6 8 6 5 5 4 5 4 4 5 5 5 8 6 4 3 5 9 10 11
19 19 18 17 16 15 14 13 12 11 10 9 9 8 6 7 4 7 7 4 3 7 6 8 7 6 5 4 5 4 3 5 5 7 6 7 8 7 6 7 10 12 12
18 19 18 18 17 16 14 13 12 12 10 9 9 10 6 9 4 8 7 7 6 7 8 8 9 6 6 7 7 3 3 5 7 9 11 11 12 10 13 13 11 10 13
18 19 18 17 16 15 14 13 12 12 11 10 10 11 9 11 5 6 10 9 7 7 7 6 8 7 10 7 7 9 4 4 7 9 9 9 9 11 13 16 15 15 15
16 17 16 16 16 16 15 13 13 13 12 10 10 12 11 10 7 6 7 8 7 7 8 5 9 9 8 5 4 9 3 5 8 8 8 10 11 10 12 13 12 12 13
15 15 15 16 15 16 16 14 14 13 12 11 10 11 14 8 10 8 8 7 7 6 6 7 7 10 8 2 4 7 3 6 9 7 7 11 12 11 13 13 13 12 11
13 15 17 16 16 16 16 15 15 14 13 12 11 11 14 12 8 11 8 8 7 8 7 6 7 7 8 2 4 7 5 7 8 11 13 13 11 13 13 11 13 13 12
15 15 17 16 16 16 16 16 15 14 13 13 12 11 11 9 9 8 8 7 7 9 8 9 9 8 6 3 1 4 6 8 10 8 11 8 8 10 9 11 9 11 13
13 16 16 16 16 17 16 16 15 15 14 14 13 12 12 9 9 8 9 8 9 9 8 9 8 8 8 7 3 1 5 6 9 11 10 7 8 9 5 5 17 15 14
8 15 16 17 17 17 16 16 15 15 15 15 14 13 12 10 11 8 8 9 10 7 8 7 6 7 8 7 6 3 3 3 7 9 11 11 8 11 10 14 16 14 11
11 13 17 18 18 18 17 16 16 16 16 15 14 13 12 10 11 9 8 8 9 7 9 8 10 8 8 9 8 8 6 8 8 12 8 6 7 5 9 8 8 9 8
9 12 16 17 18 18 18 17 17 17 15 15 14 13 12 11 11 9 6 7 5 2 5 6 11 9 9 10 12 11 10 10 11 12 8 7 7 9 9 9 9 9 10
10 12 15 16 19 20 19 19 19 18 16 14 13 12 12 12 11 10 8 11 9 11 12 13 4 7 11 18 14 8 10 12 14 9 9 9 9 10 11 10 8 8 8
Wind_Direction
280 282 285 108 286 253 193 185 187 177 168 171 185 183 188 197 204 216 217 234 246 250 232 242 244 231 232 230 231 247 269 258 247 230 227 230 242 245 219 214 218 165 230
274 278 276 114 199 191 184 180 174 162 177 176 194 180 196 189 206 206 204 213 243 251 242 246 236 224 230 224 226 220 229 236 211 209 205 194 214 247 222 211 157 199 215
270 269 244 157 163 173 175 167 162 164 182 172 162 157 149 199 192 210 219 201 238 239 233 243 227 221 232 226 211 223 224 233 211 216 218 184 213 167 187 225 189 202 222
259 255 163 157 165 168 166 160 161 168 171 158 156 176 195 209 186 266 335 160 216 241 228 229 227 224 230 218 219 227 226 228 223 204 231 247 249 174 160 211 207 195 207
259 243 148 158 159 157 159 158 158 166 147 184 165 175 238 163 233 238 180 223 258 257 239 218 214 224 207 245 236 227 213 213 226 209 219 276 269 182 165 160 174 186 174
226 142 147 147 150 158 154 154 157 150 160 161 155 218 122 292 290 211 345 327 226 236 233 196 203 220 221 227 217 202 208 206 222 209 202 248 256 204 154 190 155 131 82
137 156 151 157 159 153 153 153 154 155 157 157 159 150 165 187 221 269 283 260 200 209 221 201 180 206 200 202 201 196 203 212 207 214 210 223 278 28 74 152 144 120 72
147 153 161 156 157 153 154 154 157 154 157 158 156 160 154 187 204 259 275 80 150 201 177 177 177 186 193 197 178 188 206 204 226 200 203 228 267 236 121 187 142 127 114
153 159 156 160 153 154 157 154 155 152 159 158 152 165 176 229 127 122 210 123 178 159 166 129 184 190 168 186 175 178 220 75 61 135 163 243 290 301 222 143 161 141 149
160 158 157 154 152 153 152 154 155 155 158 156 167 159 173 170 119 144 224 85 169 129 133 141 161 158 148 161 143 175 133 110 102 263 264 263 275 277 110 127 129 165 145
162 156 155 153 152 153 153 153 154 157 156 162 176 125 147 181 112 143 191 123 183 149 177 149 135 122 136 128 112 122 136 178 158 185 268 276 117 150 105 99 109 107 109
158 159 154 156 154 159 152 158 155 155 160 169 170 136 169 119 105 150 187 158 199 190 170 142 147 140 118 83 105 140 141 105 164 177 190 159 128 101 112 127 115 113 110
159 157 156 160 159 157 157 159 161 161 163 169 165 129 130 123 130 138 156 207 165 176 170 138 114 113 72 96 77 114 124 157 173 202 154 175 152 100 101 119 109 107 112
160 159 162 162 161 156 162 160 167 157 161 165 147 133 163 125 145 146 168 196 170 157 168 140 93 89 95 103 118 121 162 163 135 157 110 104 101 85 121 114 117 123 117
171 162 167 162 160 161 162 161 165 159 160 164 147 121 153 127 138 135 159 157 173 154 151 98 117 111 127 78 102 113 153 131 126 115 95 104 119 85 55 127 128 137 123
175 167 168 163 163 163 166 161 163 158 162 160 146 129 171 117 157 142 146 158 156 159 127 143 125 127 92 66 48 36 139 120 121 104 106 105 104 81 76 87 87 118 130
176 172 170 167 163 164 165 163 164 160 160 166 142 126 175 125 189 152 147 134 117 114 106 126 109 119 113 63 30 4 121 92 98 110 115 110 99 109 108 90 89 82 84
175 174 172 166 162 161 163 164 164 165 164 165 155 158 141 141 179 131 146 135 121 131 133 133 126 115 103 69 5 339 135 103 112 108 115 110 114 117 112 103 97 99 105
167 173 169 165 164 163 159 166 168 170 168 162 165 155 129 160 156 136 135 131 110 122 124 142 142 128 129 152 329 328 119 108 109 95 99 112 104 105 103 108 106 100 96
164 168 165 164 167 167 162 168 170 175 173 161 169 158 148 158 151 134 155 149 138 131 146 133 86 78 124 49 324 308 117 115 101 97 92 81 105 124 124 118 122 121 125
164 167 166 169 170 170 168 175 171 179 175 160 162 157 142 144 127 135 143 146 121 116 131 136 146 127 117 121 259 339 137 127 122 130 115 109 103 100 81 120 130 133 137
176 173 170 169 172 172 177 180 175 178 175 163 161 159 146 164 142 157 150 148 131 131 134 131 141 135 130 131 127 356 90 131 138 124 116 109 94 88 80 126 123 151 141
236 178 173 170 173 176 181 186 177 178 175 168 163 160 161 166 145 160 159 147 153 155 149 154 129 135 138 139 116 171 134 24 125 121 100 114 110 114 91 131 151 162 154
245 187 178 175 177 180 183 189 178 181 175 171 167 165 171 172 160 164 179 160 183 179 160 157 137 152 146 139 148 147 151 127 106 119 134 124 108 79 111 148 169 202 157
221 208 191 180 179 181 183 187 180 184 176 173 172 172 177 183 168 189 181 182 188 138 170 146 148 149 152 154 149 164 155 163 154 147 150 162 160 143 152 168 198 209 166
247 209 201 188 180 183 185 186 181 184 176 176 178 179 180 182 177 185 163 52 64 75 62 53 66 121 134 129 134 99 110 135 146 165 175 179 181 172 174 179 193 164 188